Retour au catalogue

SL-12 DEB

ActifHEO
NORAD 29325·DEBRIS·🇷🇺 Russia

Lancé May 31, 1989 depuis Baikonur Cosmodrome

Loading…

Prochains Passages (prochaines 24 heures)

TLE

FraisSource: Space-Track

Époque: Sep 14, 2026, 11:02 UTC

1 29325U 89039AG  26257.45993677  .00000110  00000-0  32247-3 0  9995
2 29325  65.0746 199.8186 5411825  91.4047 328.0475  4.59674526232086

Suivez SL-12 DEB en temps réel avec AllMySat

Download on the App Store